Location: St. Louis
(38.6270°N, 90.1994°W)
Time: 05:12:40
(UTC-05:00)

RS-15 - Pass Details

Date: 27 January 2022
Orbit: 1881 x 2163 km, 64.8° (Epoch: 20 May)

Event Time Altitude Azimuth Distance (km) Brightness Sun altitude
Rises 18:02:15 0° 217° (SW) 5,374 11.3 -9.1°
Reaches altitude 10° 18:05:30 10° 219° (SW) 4,410 10.8 -9.7°
Maximum altitude 18:16:58 73° 304° (NW) 2,139 8.3 -11.9°
Drops below altitude 10° 18:29:08 10° 30° (NNE) 4,645 9.6 -14.2°
Sets 18:32:41 0° 32° (NNE) 5,671 10.1 -14.9°
